Stündliche Wetter Abramowice

Heute, 22 Juni, Dienstag

Zeit Temperatur Niederschläge Wind Luftdruck Luftfeuchtigkeit
00:00 +21°C° 0 mm 1 m/S 723 mmHg 85%
01:00 +20°C° 0 mm 1 m/S 723 mmHg 86%
02:00 +20°C° 0 mm 1 m/S 723 mmHg 86%
03:00 +20°C° 0 mm 1 m/S 723 mmHg 85%
04:00 +20°C° 0 mm 1 m/S 723 mmHg 85%
05:00 +22°C° 0 mm 1 m/S 723 mmHg 79%
06:00 +24°C° 0 mm 1 m/S 723 mmHg 73%
07:00 +26°C° 0 mm 1 m/S 723 mmHg 68%
08:00 +27°C° 0 mm 1 m/S 723 mmHg 61%
09:00 +29°C° 0 mm 1 m/S 724 mmHg 55%
10:00 +31°C° 0 mm 1 m/S 724 mmHg 49%
11:00 +31°C° 0.1 mm 1 m/S 724 mmHg 50%
12:00 +31°C° 0.1 mm 1 m/S 724 mmHg 51%
13:00 +31°C° 0.1 mm 1 m/S 724 mmHg 51%
14:00 +29°C° 1.9 mm 2 m/S 724 mmHg 61%
15:00 +27°C° 1.9 mm 3 m/S 724 mmHg 71%
16:00 +25°C° 1.9 mm 4 m/S 725 mmHg 80%
17:00 +24°C° 0.8 mm 3 m/S 725 mmHg 83%
18:00 +24°C° 0.8 mm 3 m/S 724 mmHg 87%
19:00 +23°C° 0.8 mm 2 m/S 724 mmHg 90%
20:00 +21°C° 0.5 mm 2 m/S 725 mmHg 92%
21:00 +20°C° 0.5 mm 2 m/S 725 mmHg 94%
22:00 +20°C° 0.5 mm 1 m/S 726 mmHg 96%
23:00 +20°C° 0.1 mm 1 m/S 726 mmHg 96%

Morgen, 23 Juni, Mittwoch

Zeit Temperatur Niederschläge Wind Luftdruck Luftfeuchtigkeit
00:00 +20°C° 0.1 mm 1 m/S 726 mmHg 97%
01:00 +20°C° 0.1 mm 1 m/S 727 mmHg 97%
02:00 +20°C° 0 mm 1 m/S 727 mmHg 97%
03:00 +20°C° 0 mm 1 m/S 727 mmHg 97%
04:00 +20°C° 0 mm 1 m/S 727 mmHg 96%
05:00 +20°C° 0 mm 1 m/S 727 mmHg 95%
06:00 +21°C° 0 mm 1 m/S 728 mmHg 93%
07:00 +21°C° 0 mm 1 m/S 728 mmHg 91%
08:00 +22°C° 0 mm 1 m/S 728 mmHg 89%
09:00 +22°C° 0 mm 1 m/S 729 mmHg 86%
10:00 +23°C° 0 mm 1 m/S 729 mmHg 83%
11:00 +23°C° 0 mm 1 m/S 729 mmHg 82%
12:00 +23°C° 0 mm 1 m/S 729 mmHg 81%
13:00 +23°C° 0 mm 1 m/S 729 mmHg 81%
14:00 +24°C° 0 mm 1 m/S 729 mmHg 79%
15:00 +25°C° 0 mm 1 m/S 729 mmHg 77%
16:00 +25°C° 0 mm 1 m/S 729 mmHg 74%
17:00 +24°C° 0.1 mm 1 m/S 729 mmHg 79%
18:00 +24°C° 0.1 mm 1 m/S 729 mmHg 83%
19:00 +23°C° 0.1 mm 1 m/S 729 mmHg 87%
20:00 +22°C° 0 mm 1 m/S 729 mmHg 89%
21:00 +20°C° 0 mm 0 m/S 729 mmHg 90%
22:00 +19°C° 0 mm 0 m/S 729 mmHg 92%
23:00 +19°C° 0 mm 0 m/S 729 mmHg 93%

übermorgen, 24 Juni, Donnerstag

Zeit Temperatur Niederschläge Wind Luftdruck Luftfeuchtigkeit
00:00 +20°C° 0 mm 1 m/S 729 mmHg 94%
01:00 +20°C° 0 mm 1 m/S 729 mmHg 95%
02:00 +20°C° 0 mm 1 m/S 729 mmHg 95%
03:00 +19°C° 0 mm 1 m/S 729 mmHg 96%
04:00 +19°C° 0 mm 1 m/S 728 mmHg 96%
05:00 +21°C° 0 mm 1 m/S 728 mmHg 92%
06:00 +22°C° 0 mm 1 m/S 729 mmHg 87%
07:00 +24°C° 0 mm 1 m/S 729 mmHg 82%
08:00 +26°C° 0 mm 2 m/S 729 mmHg 74%
09:00 +28°C° 0 mm 2 m/S 728 mmHg 66%
10:00 +30°C° 0 mm 2 m/S 728 mmHg 59%
11:00 +31°C° 0.2 mm 2 m/S 728 mmHg 57%
12:00 +31°C° 0.2 mm 2 m/S 728 mmHg 55%
13:00 +33°C° 0.2 mm 3 m/S 727 mmHg 53%
14:00 +32°C° 0.3 mm 2 m/S 727 mmHg 55%
15:00 +31°C° 0.3 mm 2 m/S 727 mmHg 57%
16:00 +31°C° 0.3 mm 2 m/S 727 mmHg 59%
17:00 +30°C° 0.2 mm 1 m/S 727 mmHg 66%
18:00 +28°C° 0.2 mm 1 m/S 727 mmHg 72%
19:00 +25°C° 0.2 mm 0 m/S 726 mmHg 78%
20:00 +26°C° 0.3 mm 1 m/S 726 mmHg 82%
21:00 +24°C° 0.3 mm 1 m/S 726 mmHg 85%
22:00 +23°C° 0.3 mm 1 m/S 726 mmHg 88%
23:00 +22°C° 0 mm 1 m/S 726 mmHg 89%

25 Juni, Freitag

Zeit Temperatur Niederschläge Wind Luftdruck Luftfeuchtigkeit
00:00 +22°C° 0 mm 1 m/S 726 mmHg 89%
01:00 +22°C° 0 mm 1 m/S 725 mmHg 90%
02:00 +21°C° 0 mm 1 m/S 725 mmHg 92%
03:00 +20°C° 0 mm 1 m/S 725 mmHg 94%
04:00 +20°C° 0 mm 1 m/S 725 mmHg 96%
05:00 +21°C° 0 mm 1 m/S 725 mmHg 92%
06:00 +22°C° 0 mm 1 m/S 726 mmHg 89%
07:00 +23°C° 0 mm 1 m/S 726 mmHg 85%
08:00 +24°C° 0 mm 2 m/S 726 mmHg 81%
09:00 +25°C° 0 mm 3 m/S 726 mmHg 76%
10:00 +25°C° 0 mm 3 m/S 726 mmHg 71%
11:00 +25°C° 0.2 mm 4 m/S 726 mmHg 71%
12:00 +25°C° 0.2 mm 4 m/S 727 mmHg 70%
13:00 +26°C° 0.2 mm 5 m/S 727 mmHg 70%
14:00 +23°C° 0.4 mm 4 m/S 727 mmHg 75%
15:00 +22°C° 0.4 mm 4 m/S 727 mmHg 79%
16:00 +21°C° 0.4 mm 4 m/S 727 mmHg 84%
17:00 +20°C° 0.1 mm 4 m/S 727 mmHg 85%
18:00 +20°C° 0.1 mm 3 m/S 727 mmHg 86%
19:00 +19°C° 0.1 mm 3 m/S 727 mmHg 88%
20:00 +18°C° 0 mm 3 m/S 728 mmHg 90%
21:00 +17°C° 0 mm 2 m/S 728 mmHg 92%
22:00 +16°C° 0 mm 2 m/S 728 mmHg 95%
23:00 +16°C° 0 mm 2 m/S 728 mmHg 94%

26 Juni, Samstag

Zeit Temperatur Niederschläge Wind Luftdruck Luftfeuchtigkeit
00:00 +16°C° 0 mm 2 m/S 728 mmHg 93%
01:00 +15°C° 0 mm 2 m/S 728 mmHg 93%
02:00 +15°C° 0 mm 2 m/S 728 mmHg 93%
03:00 +14°C° 0 mm 3 m/S 728 mmHg 94%
04:00 +14°C° 0 mm 3 m/S 728 mmHg 95%
05:00 +16°C° 0 mm 3 m/S 728 mmHg 91%
06:00 +17°C° 0 mm 3 m/S 729 mmHg 88%
07:00 +18°C° 0 mm 3 m/S 729 mmHg 85%
08:00 +19°C° 0 mm 3 m/S 729 mmHg 78%
09:00 +20°C° 0 mm 3 m/S 729 mmHg 71%
10:00 +21°C° 0 mm 4 m/S 730 mmHg 64%
11:00 +21°C° 0 mm 3 m/S 729 mmHg 62%
12:00 +22°C° 0 mm 3 m/S 729 mmHg 61%
13:00 +22°C° 0 mm 3 m/S 729 mmHg 59%
14:00 +22°C° 0 mm 3 m/S 729 mmHg 60%
15:00 +22°C° 0 mm 3 m/S 729 mmHg 60%
16:00 +22°C° 0 mm 3 m/S 729 mmHg 61%
17:00 +21°C° 0 mm 2 m/S 729 mmHg 67%
18:00 +20°C° 0 mm 2 m/S 729 mmHg 73%
19:00 +20°C° 0 mm 1 m/S 729 mmHg 80%
20:00 +18°C° 0 mm 1 m/S 729 mmHg 83%
21:00 +16°C° 0 mm 1 m/S 729 mmHg 86%
22:00 +15°C° 0 mm 1 m/S 729 mmHg 89%
23:00 +15°C° 0 mm 1 m/S 729 mmHg 90%

27 Juni, Sonntag

Zeit Temperatur Niederschläge Wind Luftdruck Luftfeuchtigkeit
00:00 +15°C° 0 mm 1 m/S 729 mmHg 91%
01:00 +14°C° 0 mm 1 m/S 729 mmHg 92%
02:00 +14°C° 0 mm 1 m/S 730 mmHg 91%
03:00 +14°C° 0 mm 1 m/S 730 mmHg 90%
04:00 +15°C° 0 mm 1 m/S 730 mmHg 89%
05:00 +16°C° 0 mm 1 m/S 730 mmHg 85%
06:00 +18°C° 0 mm 1 m/S 730 mmHg 80%
07:00 +19°C° 0 mm 1 m/S 730 mmHg 76%
08:00 +20°C° 0 mm 2 m/S 730 mmHg 69%
09:00 +21°C° 0 mm 2 m/S 730 mmHg 62%
10:00 +24°C° 0 mm 2 m/S 731 mmHg 54%
11:00 +24°C° 0 mm 2 m/S 730 mmHg 53%
12:00 +24°C° 0 mm 2 m/S 730 mmHg 52%
13:00 +25°C° 0 mm 2 m/S 730 mmHg 51%
14:00 +25°C° 0 mm 2 m/S 730 mmHg 51%
15:00 +25°C° 0 mm 2 m/S 730 mmHg 51%
16:00 +25°C° 0 mm 2 m/S 730 mmHg 51%
17:00 +24°C° 0 mm 2 m/S 730 mmHg 58%
18:00 +22°C° 0 mm 1 m/S 730 mmHg 65%
19:00 +21°C° 0 mm 1 m/S 730 mmHg 72%
20:00 +20°C° 0 mm 1 m/S 730 mmHg 76%
21:00 +18°C° 0 mm 1 m/S 731 mmHg 80%
22:00 +16°C° 0 mm 1 m/S 731 mmHg 85%
23:00 +15°C° 0 mm 1 m/S 731 mmHg 86%
Mehr zeigen

Wir brauchen deine Erlaubnis

Meteoprog und unser Service Anbieter werden persönliche Daten aufbewahren, so wie Cookies, Geräte Bezeichnung oder ähnliche Technologien von deinem Gerät und Prozess, so wie Persönliche Daten Inhalte und Werbungen, genauso wie social Media und den Verkehr zu analysieren.

  • Aufbewahrung und/oder Zugang zu deiner Geräte Informationen.

    Cookies, Geräte Bezeichnung oder andere Informationen, können aufbewahrt oder Zugang zu deinem Gerät erhalten, für den Grund, der oben angegeben wird.

  • Personalisierte Werbung und Inhalte, Messungen, Einblick in das Publikum und Produkt Entwicklung.

    Werbungen und Inhalte können personalisiert werden, basierend auf ein Profil. Mehr Daten können besser personalisierte Werbungen und Inhalte hinzufügen. Werbung und Inhalte können gezeigt und gemessen werden. Einblicke über das Publikum, welche die Werbung gesehen haben und den Inhalt, können abgeleitet werden. So wie Daten können genutzt werden, um es zu verbessern oder die Benutzer Erfahrung zu verbessern das System und die Software.

Wenn du “Ich stimme zu” klickst, erlaubst du uns, die Cookies zu benutzen die Geräte Bezeichnung, den Web oder ähnliche Technologien zu benutzen. Deine Settings, können in deinem Gerät bei deinem Browser geändert werden.

Für den bestimmten Zweck, berechtigten Interessen beruhen darauf, mehr als auf den Inhalt. Du kannst mehr darüber in unseren Privaten und Cookie Politik lesen.